Wetbulb
56.48 56.25 55.98 55.27 54.89 55.22 55.50 55.12 54.04 54.10 54.75 55.28 55.04 54.76 54.73 54.76 54.50 54.07 53.89 53.97 53.79 53.83 53.92 54.19 53.74 53.36 52.93 52.35 50.63 49.79 49.62 50.25 49.51 48.65 48.24 48.75 49.29 49.17 48.72 48.07 47.89 47.95 47.91 47.81 47.51 47.49 47.62 47.84 47.76 47.16 46.73 46.69 47.11 47.57 47.95 47.83 47.15 46.65 46.34 46.17 46.05 45.88 45.61 45.41 45.64 45.69 45.75 45.68 45.29
56.67 56.57 55.60 53.72 53.72 54.83 55.68 55.02 54.29 54.28 54.81 55.59 55.37 55.22 55.11 55.17 54.87 54.54 54.29 54.14 54.06 54.21 54.26 54.22 53.82 53.54 52.97 51.77 50.53 49.97 49.66 49.66 49.07 48.64 48.36 48.53 48.82 48.51 47.95 47.79 47.89 47.95 47.91 47.69 47.51 47.24 47.21 47.44 47.41 46.92 46.38 46.24 46.65 46.99 47.22 47.13 46.44 46.05 45.73 45.63 45.29 44.87 44.66 44.81 45.48 45.75 45.84 45.67 45.14
56.88 56.66 56.29 55.70 55.97 56.18 55.99 55.45 55.04 55.12 55.39 55.64 55.63 55.52 55.34 55.41 55.40 55.05 54.78 54.50 54.68 54.64 54.31 53.78 53.45 53.02 52.32 51.33 50.58 50.19 49.93 49.63 49.10 48.83 48.70 48.61 48.46 48.05 47.69 47.57 47.80 47.73 47.47 47.54 47.37 47.21 47.14 47.24 46.96 46.41 45.84 45.74 46.18 46.45 46.42 46.05 45.58 45.31 45.31 45.14 44.44 43.96 43.81 43.96 45.14 45.48 45.41 44.96 44.54
56.98 56.74 56.62 56.41 56.50 56.60 56.43 56.00 55.51 55.45 55.59 55.64 55.64 55.54 55.38 55.63 55.64 55.46 55.13 54.85 54.55 54.23 53.98 53.65 53.05 52.35 51.53 50.69 50.27 50.06 49.70 48.70 48.93 48.93 48.80 48.60 48.10 47.67 47.45 47.50 47.67 47.69 47.58 47.57 47.38 47.14 47.10 47.05 46.76 46.41 46.11 46.21 46.25 46.29 46.00 44.94 44.59 44.49 44.59 44.35 43.91 43.64 43.64 43.72 44.39 44.50 44.40 44.30 44.11
56.90 56.90 56.86 56.66 56.79 56.99 57.19 56.94 56.23 55.95 55.82 55.85 55.56 55.41 55.23 55.41 55.50 55.44 54.94 54.01 53.69 53.70 53.76 53.87 53.17 52.02 50.85 50.34 50.02 49.74 49.35 48.51 47.25 47.93 48.94 48.56 47.86 47.45 47.30 47.38 47.65 47.57 47.37 47.27 47.12 46.95 46.84 46.87 46.64 46.53 46.53 46.51 46.11 46.14 45.90 44.98 44.05 43.98 43.96 43.55 43.46 43.62 43.77 43.57 43.64 43.81 44.00 43.95 43.52
56.80 57.02 57.11 57.14 57.08 57.27 57.51 57.52 56.90 56.41 56.23 56.24 55.86 55.49 55.24 55.25 55.25 55.02 54.40 53.80 53.59 53.64 53.37 52.32 51.63 50.47 49.73 49.99 49.67 49.36 48.98 48.49 47.81 48.23 48.78 48.27 47.43 46.99 46.91 46.97 47.33 47.30 46.97 46.87 46.77 46.62 46.50 46.60 46.26 46.11 46.12 46.02 45.82 45.85 45.64 44.86 44.37 44.23 43.98 43.17 43.17 43.49 43.84 43.69 43.52 43.88 44.17 43.94 43.19
57.02 57.05 57.15 57.15 56.98 57.21 57.45 57.64 57.02 56.62 56.45 56.45 56.08 55.72 55.57 55.51 55.37 55.18 54.87 54.58 53.95 53.06 51.97 50.46 50.37 49.96 49.41 49.45 49.14 48.90 48.60 48.16 48.03 48.26 48.38 48.00 47.15 46.57 46.35 46.62 46.67 46.67 46.60 46.42 46.34 46.31 46.29 46.61 46.21 45.38 44.52 43.98 44.42 44.67 44.74 44.76 44.86 44.54 44.03 43.40 43.12 43.39 43.81 44.24 44.18 44.18 44.24 44.24 43.64
57.21 57.15 57.09 57.05 56.91 57.03 57.22 57.47 56.93 56.45 56.23 56.11 55.82 55.76 55.78 55.75 55.53 55.30 55.06 54.87 53.75 52.49 51.51 50.93 51.12 50.65 49.92 49.40 49.05 48.74 48.30 47.80 47.60 47.73 47.88 47.60 46.82 46.37 46.14 46.26 46.16 46.09 46.12 46.04 46.15 46.15 46.27 46.47 46.11 45.48 44.76 44.06 43.72 43.72 44.02 44.49 44.76 44.49 44.05 43.72 43.39 43.51 44.05 44.77 44.95 44.88 44.59 44.28 43.86
57.17 57.05 57.09 57.14 57.01 56.91 57.03 57.10 56.75 56.23 56.00 55.96 55.80 55.78 55.74 55.77 55.49 55.10 54.67 54.32 53.25 52.34 51.71 51.57 51.24 50.70 50.18 49.60 49.14 48.63 48.03 47.51 47.30 47.19 47.20 47.10 46.30 46.02 45.92 45.96 45.78 45.71 45.74 45.89 46.07 46.09 46.04 46.02 45.87 45.60 45.03 44.12 43.75 43.51 43.67 44.20 44.17 44.05 44.09 44.27 43.87 43.69 44.11 45.18 45.38 45.33 44.91 44.47 44.13
56.94 56.96 56.99 56.89 56.92 56.74 56.77 56.94 56.58 56.14 55.95 55.92 55.88 55.57 54.78 53.29 54.12 54.51 54.44 54.04 52.99 52.23 51.88 51.96 51.07 50.40 49.86 49.31 48.79 48.31 47.91 47.58 47.11 46.78 46.46 46.09 45.72 45.69 45.69 45.75 45.59 45.48 45.49 45.57 45.92 46.12 46.00 45.80 45.77 45.58 45.28 44.61 44.24 43.73 43.60 43.95 43.90 43.88 43.97 44.20 44.21 44.24 44.37 45.03 45.28 45.06 44.79 44.14 44.33
56.99 56.84 56.84 56.79 56.70 56.49 56.31 56.60 56.17 55.80 55.67 55.80 55.59 55.29 54.45 53.02 53.79 54.03 54.10 53.92 52.91 52.21 51.85 51.68 50.62 49.84 49.36 48.77 48.46 48.06 47.78 47.66 47.13 46.59 46.10 45.74 45.42 45.52 45.70 45.83 45.69 45.47 45.31 45.47 45.87 45.92 45.77 45.55 45.68 45.40 44.98 44.62 44.21 43.69 43.34 43.52 43.86 43.97 44.12 44.58 44.68 44.54 44.44 44.54 44.59 44.49 44.30 44.08 44.15
57.17 57.01 56.95 56.98 56.81 56.48 56.17 56.29 55.98 55.61 55.38 55.49 55.25 54.95 54.54 54.09 54.12 53.71 53.41 53.51 52.66 51.98 51.51 51.22 50.18 49.60 49.16 48.61 48.26 47.82 47.49 47.54 47.05 46.49 46.01 45.75 45.66 45.69 45.67 45.84 45.75 45.58 45.50 45.43 45.82 45.85 45.73 45.63 45.55 45.16 44.71 44.21 43.86 43.58 43.42 43.37 43.93 44.20 44.44 44.87 44.94 44.58 44.14 44.06 44.05 44.03 44.00 44.19 43.88
57.26 57.11 57.03 56.98 56.91 56.44 56.19 55.98 55.95 55.82 55.47 55.41 55.09 54.79 54.33 54.06 53.56 53.12 52.80 52.91 52.11 51.59 51.04 50.32 49.83 49.42 49.10 48.68 48.03 47.66 47.37 47.20 46.92 46.56 46.28 45.98 45.73 45.63 45.67 45.69 45.68 45.67 45.53 45.58 45.82 45.90 45.90 45.89 45.65 45.08 44.42 43.75 43.59 43.72 43.85 43.70 44.22 44.43 44.73 44.82 44.59 44.44 44.34 44.16 43.92 43.91 43.98 44.18 43.83
57.49 57.26 56.97 56.98 56.83 56.44 56.11 55.98 56.03 55.97 55.71 55.50 55.24 54.91 54.50 54.05 53.03 52.50 52.36 52.61 52.05 51.38 50.61 49.74 49.30 49.20 49.05 48.95 48.16 47.68 47.40 47.22 47.04 46.80 46.57 45.96 45.69 45.54 45.55 45.57 45.67 45.67 45.64 45.70 45.89 46.11 46.18 46.01 45.82 45.21 44.47 43.69 43.72 44.06 44.36 44.36 44.52 44.88 44.91 44.85 44.65 44.59 44.68 44.79 44.22 43.69 43.48 43.52 43.21
57.65 57.28 57.14 57.08 56.83 56.44 56.19 55.98 56.09 56.13 55.95 55.73 55.55 55.23 54.75 54.11 52.68 52.10 52.10 52.68 52.15 51.43 50.55 49.53 49.06 48.90 48.96 48.90 48.27 47.81 47.54 47.34 47.15 46.85 46.61 46.12 45.99 45.75 45.73 45.82 45.64 45.64 45.72 45.82 45.84 46.21 46.48 46.28 45.89 45.36 44.70 43.99 44.08 44.42 44.64 44.69 44.84 45.09 45.26 45.32 45.16 45.08 44.96 44.69 43.87 43.12 42.63 42.61 42.17
57.59 57.37 57.29 57.08 56.83 56.52 56.36 56.15 56.26 56.25 56.27 55.92 55.80 55.46 55.05 54.37 53.05 52.19 51.87 52.44 51.87 51.25 50.52 49.65 49.32 49.23 48.85 48.03 47.87 47.89 47.73 47.49 47.14 47.10 47.05 46.78 46.83 46.54 46.42 46.40 46.19 46.23 46.27 46.13 46.09 46.30 46.59 46.75 46.21 45.61 45.14 44.69 44.68 44.71 44.79 44.60 44.60 44.81 45.23 45.63 45.47 44.90 44.20 43.52 43.09 42.60 42.22 41.95 41.65
57.68 57.47 57.33 57.03 56.79 56.55 56.42 56.36 56.48 56.53 56.47 56.19 55.98 55.63 55.28 54.81 53.56 52.25 51.33 51.53 51.50 51.19 50.56 49.91 49.46 48.99 48.19 47.13 47.31 47.58 47.74 47.41 46.88 46.82 46.90 47.00 47.25 47.31 47.34 47.49 47.47 47.51 47.24 46.58 46.11 46.06 46.22 46.22 45.90 45.65 45.45 45.34 45.25 45.15 44.98 44.49 44.30 44.29 44.50 44.79 44.49 43.94 43.28 42.88 42.86 42.66 42.10 41.49 41.15
57.70 57.58 57.44 57.13 56.88 56.67 56.54 56.64 56.62 56.73 56.60 56.39 56.01 55.81 55.53 55.18 53.93 52.60 51.53 51.24 51.51 51.30 50.68 50.04 49.51 48.84 47.91 47.30 47.18 47.20 47.14 46.96 46.13 45.92 46.10 46.77 47.26 47.48 47.77 48.14 48.23 48.14 47.63 46.59 46.03 45.64 45.46 45.18 45.19 45.24 45.38 45.53 45.62 45.39 44.99 44.22 43.64 43.43 43.28 43.34 43.23 43.22 43.30 43.26 43.13 42.76 42.25 41.57 41.12
57.67 57.62 57.48 57.25 57.10 56.88 56.67 56.42 56.63 56.83 56.79 56.58 56.26 55.90 55.62 55.35 54.29 53.16 52.28 51.79 51.61 51.42 50.95 50.12 49.50 48.64 47.85 47.53 47.35 46.72 46.16 46.37 46.07 46.06 46.41 47.34 47.57 47.70 47.96 48.29 48.46 48.12 47.35 46.18 45.75 45.32 45.01 44.73 44.95 45.02 44.98 45.27 45.26 45.05 44.57 43.96 43.28 42.96 42.80 42.82 42.93 43.18 43.37 43.43 43.19 42.86 42.41 42.00 41.55
57.82 57.75 57.68 57.61 57.46 57.25 57.02 56.71 56.89 56.87 56.97 56.75 56.36 55.91 55.61 55.35 54.47 53.58 52.61 52.10 51.75 51.59 51.23 50.50 49.59 48.58 47.79 47.46 47.22 46.92 46.38 45.97 46.35 46.67 47.05 47.72 47.78 47.87 48.04 48.38 48.37 47.93 47.13 46.37 46.00 45.71 45.47 45.09 45.23 44.97 44.70 44.77 44.70 44.37 44.08 43.75 43.21 43.00 42.95 43.06 43.35 43.37 43.26 43.13 42.80 42.47 42.29 42.01 41.81
57.96 57.96 58.03 57.98 57.83 57.61 57.46 57.32 57.32 57.19 57.05 56.91 56.36 55.90 55.46 55.24 54.62 53.84 53.04 52.20 51.97 51.57 51.17 50.57 49.60 48.45 47.53 47.10 47.00 47.31 47.24 46.11 46.87 47.20 47.39 47.61 47.76 48.03 48.17 48.27 47.80 47.03 46.34 45.87 45.61 45.35 45.22 44.92 45.01 44.88 44.75 44.44 44.19 44.02 43.89 43.64 43.39 43.22 43.14 43.31 43.48 43.43 43.31 42.97 42.68 42.31 42.11 42.02 41.62
58.24 58.33 58.34 58.34 58.25 58.09 57.85 57.73 57.59 57.32 57.04 56.83 56.36 55.97 55.52 55.08 54.67 54.22 53.56 52.70 52.07 51.44 50.86 50.50 49.60 48.54 47.63 47.08 46.92 47.12 47.26 46.68 47.35 47.33 47.28 47.52 47.78 48.06 47.94 47.35 46.40 45.61 45.05 44.87 44.87 44.86 44.86 44.90 45.08 45.21 45.03 44.47 44.08 43.87 43.87 43.83 44.00 44.01 43.88 43.80 43.77 43.64 43.52 43.26 42.89 42.48 42.11 41.82 41.40
59.05 59.04 58.86 58.77 58.61 58.00 57.54 57.77 57.82 57.47 57.06 56.78 56.41 56.03 55.59 55.23 55.02 54.70 54.10 52.93 51.73 51.02 50.66 50.45 49.59 48.72 47.93 47.25 46.72 46.53 46.73 47.06 47.03 46.78 46.56 47.04 47.47 47.52 47.35 46.49 45.57 45.04 44.91 45.07 45.33 45.51 45.68 45.77 45.78 45.73 45.61 45.17 44.57 44.40 44.36 44.44 44.70 44.66 44.66 44.36 44.06 43.81 43.43 43.22 42.77 42.27 41.90 41.55 41.35
60.64 60.47 60.06 59.79 59.78 59.46 59.06 59.26 59.27 58.67 57.85 57.04 56.42 55.92 55.57 55.23 55.14 54.71 53.94 52.54 51.49 50.95 50.55 50.14 49.17 48.38 47.65 46.62 46.07 45.83 45.88 46.21 46.17 45.87 45.83 46.26 46.74 46.97 46.75 46.31 45.70 45.78 46.05 46.58 46.44 46.40 46.49 46.53 46.80 46.49 46.05 45.83 45.53 45.48 45.61 45.65 45.74 45.69 45.35 44.83 44.15 43.64 43.26 43.05 42.71 42.41 42.09 41.90 41.70
61.46 61.41 61.25 61.23 61.06 60.75 60.34 60.01 59.73 59.33 58.56 57.55 56.66 55.99 55.58 55.26 55.03 54.39 53.38 51.76 50.93 50.40 49.95 49.33 48.47 47.98 47.32 46.20 46.06 45.97 45.83 45.69 45.69 45.53 45.35 45.79 46.44 46.66 46.75 46.49 46.49 46.94 47.34 47.34 45.58 44.77 44.68 44.99 46.40 46.94 47.11 46.84 46.74 46.78 46.98 47.01 47.02 46.67 46.11 45.30 44.28 43.60 43.22 43.05 42.86 42.63 42.33 42.31 42.50
61.67 61.58 61.49 61.44 61.23 60.83 60.31 59.84 59.46 59.10 58.47 57.44 56.54 55.70 55.16 54.85 54.29 53.41 52.20 50.58 49.95 49.52 49.09 48.49 47.92 47.05 46.40 46.35 46.54 46.67 46.57 46.32 46.30 45.87 45.44 45.40 45.96 46.27 46.26 46.33 47.05 47.87 48.19 47.03 44.50 43.27 43.00 43.50 44.00 45.14 46.67 48.41 48.04 47.81 47.75 47.65 47.67 47.20 46.55 45.60 44.58 43.81 43.43 43.13 42.98 42.89 42.98 43.16 43.55
61.30 61.16 60.93 60.89 60.55 60.06 59.62 59.15 58.61 58.07 57.62 56.73 55.97 55.36 54.94 54.65 53.57 52.30 50.99 49.75 49.08 48.46 48.00 47.62 47.40 46.27 45.71 47.13 47.36 47.47 47.18 46.80 46.91 46.70 46.27 45.74 45.92 45.87 45.91 46.36 47.64 48.75 48.64 46.40 43.82 42.50 42.22 42.64 42.78 43.46 45.33 48.95 49.11 48.87 48.38 48.10 47.68 47.18 46.50 45.63 44.78 44.19 43.85 43.94 44.00 43.99 43.83 43.86 44.15
60.17 59.99 59.99 59.90 59.35 58.91 58.82 58.91 58.50 58.31 58.18 57.68 57.02 56.42 56.04 55.74 54.14 52.66 51.31 50.29 49.70 48.91 48.09 47.35 47.30 47.13 47.11 47.64 47.73 47.82 47.72 47.21 47.11 47.34 47.27 46.66 46.57 46.46 46.70 47.33 48.35 48.66 47.74 45.41 43.41 42.36 42.18 42.54 42.68 42.73 43.78 46.45 49.18 49.56 48.81 48.40 47.54 46.78 46.15 45.56 45.18 45.05 45.27 45.47 45.34 45.04 44.58 44.06 44.17
59.66 59.76 59.78 59.89 59.42 59.20 59.22 59.08 58.74 58.35 57.82 57.18 56.49 55.80 55.21 54.55 53.01 51.92 51.22 50.83 49.96 49.06 48.33 48.04 48.05 48.01 47.79 47.52 47.47 47.47 47.55 47.23 47.41 47.67 47.84 47.36 47.43 47.63 48.15 49.07 49.29 48.31 46.40 43.77 42.86 42.45 42.27 42.50 42.41 42.13 42.37 43.88 48.03 49.45 49.13 48.29 47.40 46.28 45.48 45.57 46.18 46.23 45.96 45.89 45.87 45.46 44.78 43.82 43.61
60.62 60.60 60.47 60.19 59.68 59.31 59.11 59.00 58.79 58.29 57.71 56.69 55.97 55.28 54.49 53.70 52.69 51.99 51.34 50.78 49.65 48.87 48.76 49.09 48.78 48.47 48.19 48.01 47.47 47.16 46.93 46.98 47.20 47.55 47.90 47.81 47.80 48.24 48.80 49.47 50.31 49.27 46.49 42.26 42.31 42.36 42.41 42.41 42.13 41.72 41.41 41.83 45.82 48.29 49.03 47.98 46.87 46.18 45.88 46.49 46.71 46.44 45.90 45.65 45.42 44.86 44.24 43.70 43.40
61.11 61.01 60.77 60.38 59.92 59.69 59.53 59.49 59.32 58.74 57.93 57.04 56.02 55.05 54.08 53.34 52.70 52.17 51.65 50.70 49.98 49.74 49.81 50.36 49.77 49.22 48.85 48.69 47.72 47.20 46.98 47.11 47.11 47.42 47.81 48.34 47.78 48.33 49.46 50.55 51.00 49.68 46.27 40.71 41.77 42.22 42.32 42.41 41.95 41.32 40.82 40.46 44.15 47.34 48.86 47.85 47.28 47.07 47.07 47.06 46.69 46.19 45.70 45.34 44.68 44.13 43.76 43.51 43.38
61.29 61.08 60.84 60.42 60.04 59.88 59.81 59.72 59.33 58.89 58.17 57.38 56.40 55.52 54.59 53.58 53.09 52.59 52.11 51.21 51.21 51.33 51.40 51.09 50.13 49.40 49.03 48.84 47.82 47.51 47.51 47.73 47.46 47.50 47.90 48.44 48.99 49.77 50.45 50.90 51.48 50.03 46.27 39.81 41.31 41.86 42.04 42.13 41.68 41.05 40.23 39.37 42.99 46.63 48.77 48.30 47.69 47.51 47.15 46.69 45.79 45.31 44.84 44.02 43.63 43.47 43.35 43.39 43.43
61.12 61.01 60.68 60.36 59.94 59.78 59.67 59.47 59.13 58.81 58.39 58.02 57.40 56.55 55.64 54.70 54.12 53.76 53.25 52.73 52.81 52.65 52.39 51.45 50.13 49.36 49.04 48.99 48.32 48.01 47.87 47.73 47.54 47.41 47.55 48.36 49.56 50.49 51.19 51.23 51.92 49.66 45.19 39.46 40.64 41.14 41.32 41.32 41.05 40.41 39.51 38.37 42.77 46.58 48.91 48.66 47.64 46.93 46.27 45.09 44.27 43.89 43.52 43.10 43.06 43.18 43.26 43.33 43.63
60.27 60.17 60.02 60.06 59.72 59.42 59.18 58.98 58.85 58.80 58.70 58.52 58.30 57.89 57.21 56.61 55.91 55.33 54.88 54.37 53.93 53.39 52.71 51.75 50.52 49.93 49.66 49.71 49.09 48.59 47.96 47.37 47.90 48.26 48.66 49.07 50.05 50.63 51.04 51.32 51.89 48.03 42.57 39.20 39.83 40.14 40.32 40.46 40.28 39.83 39.10 37.88 42.76 46.45 48.45 48.17 46.97 45.96 44.75 43.60 43.01 42.51 42.27 42.23 42.68 43.01 43.16 43.22 43.52
59.66 59.43 59.38 59.31 59.10 58.92 58.79 58.74 58.88 58.91 58.95 58.81 58.90 58.75 58.64 58.48 57.99 57.31 56.31 54.54 53.68 53.39 52.97 52.28 51.42 50.87 50.65 50.75 50.30 49.48 48.62 48.01 48.65 48.92 49.18 49.67 50.20 50.46 50.62 51.13 50.22 44.80 39.36 38.62 39.07 39.34 39.52 39.71 39.61 39.25 38.98 38.98 43.16 45.96 47.38 46.80 45.70 44.45 43.47 42.67 41.92 41.68 41.70 42.15 42.56 42.96 43.29 43.45 43.83
59.41 59.18 58.92 58.76 58.66 58.65 58.48 58.57 58.80 58.93 59.02 59.06 58.99 59.19 59.27 59.38 58.94 57.86 56.05 53.28 53.13 53.17 53.07 52.38 51.83 51.34 51.11 51.02 50.79 50.10 49.45 49.70 49.56 49.75 49.92 49.88 50.37 50.61 50.69 50.28 46.89 41.59 37.65 37.87 38.37 38.78 39.01 39.15 38.97 38.74 39.10 40.87 43.81 45.21 45.53 44.79 44.06 43.34 42.71 42.32 42.02 41.94 42.08 42.14 42.39 42.76 43.14 43.39 43.73
59.39 59.16 58.94 58.56 58.37 58.29 58.33 58.58 58.89 58.93 59.02 59.00 59.10 59.18 59.15 58.84 58.02 56.88 55.47 53.54 53.89 53.48 52.89 52.43 51.98 51.57 51.35 51.25 51.19 50.99 50.84 51.10 50.88 50.74 50.56 50.04 50.46 50.58 49.71 47.12 44.20 40.29 37.17 37.02 37.75 38.26 38.59 38.78 38.51 38.47 39.46 41.80 43.61 44.20 44.04 43.58 43.32 42.89 42.42 42.20 42.06 42.05 42.06 41.81 41.80 42.02 42.26 42.50 42.41
59.47 59.21 58.86 58.44 58.10 58.00 58.21 58.63 58.93 59.11 59.04 59.07 59.01 59.02 58.62 57.68 56.71 55.66 54.39 52.95 53.75 53.52 52.80 52.44 52.03 51.75 51.65 51.96 51.82 51.63 51.49 51.60 51.01 50.73 50.45 49.78 49.83 49.31 47.74 44.46 42.49 39.98 37.73 36.75 37.17 37.73 38.16 38.32 38.02 38.25 39.49 41.97 43.01 43.29 43.25 43.20 43.03 42.73 42.25 41.86 41.63 41.31 41.12 40.72 40.54 40.39 39.99 39.63 38.78
59.44 59.24 58.87 58.47 58.08 58.02 58.04 58.39 58.89 59.10 59.10 58.80 58.65 58.29 57.59 56.43 55.61 54.90 54.06 53.17 54.05 53.64 52.93 52.30 52.07 52.07 51.88 51.43 51.25 50.49 49.59 49.23 48.87 48.64 48.28 47.87 46.89 45.77 44.47 43.07 41.46 39.80 38.36 36.84 36.94 37.28 37.67 38.01 37.73 38.05 39.06 41.08 42.56 43.01 42.91 42.68 42.33 42.04 41.57 41.00 40.04 39.18 38.29 37.82 37.43 37.07 36.68 36.23 35.85
59.44 59.24 58.97 58.61 58.19 57.92 57.87 58.06 58.49 58.75 58.69 58.33 57.81 57.31 56.44 55.24 54.36 54.00 53.78 53.66 54.18 53.82 53.10 52.56 52.33 51.84 50.63 48.47 48.02 46.80 45.45 44.96 45.37 45.15 44.49 43.83 42.67 41.67 41.20 41.56 40.66 39.62 38.36 36.98 36.90 37.10 37.53 37.74 37.81 38.18 39.11 41.19 42.58 42.94 42.58 42.17 41.42 40.98 40.54 39.81 38.49 37.04 35.93 35.42 35.34 35.15 34.78 34.64 34.51
59.37 59.11 58.66 58.37 58.09 57.99 57.97 58.07 58.23 58.32 58.28 57.81 57.19 56.34 55.08 53.77 53.68 53.82 53.87 53.97 53.65 53.20 52.57 51.99 50.86 49.10 46.94 44.22 43.46 42.57 41.69 41.14 41.41 41.34 41.11 40.28 40.13 39.93 39.87 40.49 40.30 39.80 39.04 38.04 37.45 37.37 37.61 37.90 38.06 38.51 39.32 41.10 42.49 42.65 42.05 41.43 40.70 40.13 39.71 38.87 37.52 36.02 34.84 34.21 34.05 34.05 34.08 34.08 34.14
MSLP
1011.53 1011.69 1011.89 1012.09 1012.25 1012.37 1012.53 1012.73 1012.93 1013.09 1013.21 1013.37 1013.53 1013.73 1013.97 1014.17 1014.37 1014.69 1014.97 1015.17 1015.37 1015.57 1015.77 1015.97 1016.17 1016.41 1016.65 1016.93 1017.25 1017.53 1017.77 1017.97 1018.17 1018.37 1018.53 1018.65 1018.81 1019.01 1019.21 1019.37 1019.53 1019.69 1019.81 1019.97 1020.13 1020.29 1020.41 1020.53 1020.65 1020.81 1020.97 1021.09 1021.17 1021.25 1021.37 1021.45 1021.65 1021.81 1021.85 1021.93 1021.97 1022.09 1022.21 1022.29 1022.33 1022.45 1022.61 1022.69 1022.81
1011.53 1011.65 1011.85 1012.09 1012.25 1012.37 1012.53 1012.73 1012.93 1013.09 1013.25 1013.37 1013.49 1013.65 1013.85 1014.09 1014.29 1014.57 1014.85 1015.09 1015.37 1015.53 1015.69 1015.93 1016.13 1016.37 1016.65 1016.93 1017.21 1017.45 1017.65 1017.85 1018.09 1018.25 1018.45 1018.65 1018.77 1018.93 1019.13 1019.29 1019.41 1019.53 1019.65 1019.81 1020.01 1020.21 1020.33 1020.41 1020.53 1020.69 1020.85 1021.01 1021.09 1021.21 1021.29 1021.41 1021.53 1021.69 1021.81 1021.85 1021.97 1022.09 1022.25 1022.29 1022.29 1022.37 1022.57 1022.69 1022.81
1011.41 1011.61 1011.81 1011.97 1012.09 1012.25 1012.45 1012.65 1012.89 1013.05 1013.17 1013.33 1013.53 1013.65 1013.81 1014.05 1014.25 1014.49 1014.77 1015.01 1015.21 1015.41 1015.65 1015.93 1016.09 1016.33 1016.61 1016.89 1017.13 1017.37 1017.53 1017.77 1017.97 1018.17 1018.37 1018.53 1018.69 1018.89 1019.05 1019.17 1019.33 1019.41 1019.57 1019.73 1019.89 1020.05 1020.21 1020.33 1020.45 1020.57 1020.73 1020.93 1021.01 1021.09 1021.25 1021.37 1021.53 1021.65 1021.69 1021.77 1021.93 1022.09 1022.25 1022.25 1022.25 1022.37 1022.57 1022.73 1022.81
1011.33 1011.49 1011.65 1011.85 1012.01 1012.09 1012.25 1012.49 1012.73 1012.93 1013.09 1013.29 1013.49 1013.65 1013.89 1014.09 1014.25 1014.49 1014.69 1014.93 1015.17 1015.37 1015.61 1015.81 1016.01 1016.29 1016.57 1016.81 1017.09 1017.25 1017.45 1017.65 1017.81 1018.01 1018.21 1018.37 1018.61 1018.81 1018.93 1019.05 1019.17 1019.33 1019.45 1019.61 1019.73 1019.89 1020.09 1020.25 1020.37 1020.45 1020.61 1020.73 1020.81 1020.93 1021.05 1021.29 1021.45 1021.53 1021.65 1021.77 1021.89 1022.01 1022.13 1022.25 1022.29 1022.41 1022.57 1022.65 1022.77
1011.25 1011.41 1011.53 1011.73 1011.85 1011.97 1012.09 1012.29 1012.57 1012.81 1013.05 1013.25 1013.45 1013.65 1013.89 1014.09 1014.25 1014.45 1014.69 1014.97 1015.17 1015.37 1015.53 1015.69 1015.89 1016.17 1016.49 1016.73 1016.93 1017.13 1017.33 1017.53 1017.77 1017.89 1018.05 1018.25 1018.49 1018.65 1018.81 1018.93 1019.01 1019.17 1019.37 1019.53 1019.65 1019.81 1020.01 1020.17 1020.25 1020.37 1020.49 1020.57 1020.69 1020.81 1020.93 1021.13 1021.37 1021.49 1021.57 1021.77 1021.89 1021.97 1022.05 1022.17 1022.25 1022.37 1022.53 1022.61 1022.69
1011.17 1011.33 1011.45 1011.65 1011.81 1011.97 1012.05 1012.25 1012.49 1012.73 1012.93 1013.13 1013.37 1013.61 1013.81 1014.05 1014.25 1014.45 1014.65 1014.93 1015.09 1015.33 1015.53 1015.73 1015.89 1016.09 1016.37 1016.65 1016.81 1016.97 1017.21 1017.45 1017.61 1017.73 1017.89 1018.09 1018.37 1018.53 1018.69 1018.81 1018.89 1019.05 1019.25 1019.45 1019.61 1019.81 1019.97 1020.09 1020.17 1020.25 1020.37 1020.53 1020.57 1020.65 1020.85 1021.09 1021.25 1021.33 1021.45 1021.65 1021.81 1021.89 1021.97 1022.09 1022.17 1022.25 1022.37 1022.45 1022.53
1011.05 1011.21 1011.37 1011.53 1011.73 1011.89 1011.97 1012.17 1012.41 1012.65 1012.89 1013.09 1013.25 1013.49 1013.65 1013.85 1014.09 1014.33 1014.53 1014.73 1015.01 1015.29 1015.53 1015.73 1015.89 1016.09 1016.29 1016.53 1016.69 1016.89 1017.09 1017.29 1017.49 1017.61 1017.77 1017.97 1018.21 1018.37 1018.53 1018.69 1018.85 1019.01 1019.17 1019.37 1019.57 1019.73 1019.81 1019.89 1020.01 1020.13 1020.29 1020.49 1020.57 1020.65 1020.81 1020.93 1021.05 1021.17 1021.33 1021.45 1021.65 1021.81 1021.85 1021.85 1021.97 1022.09 1022.17 1022.21 1022.29
1010.97 1011.13 1011.25 1011.41 1011.65 1011.81 1011.93 1012.09 1012.33 1012.61 1012.81 1012.97 1013.17 1013.37 1013.53 1013.73 1013.97 1014.21 1014.45 1014.65 1014.89 1015.17 1015.37 1015.57 1015.73 1015.89 1016.09 1016.33 1016.49 1016.69 1016.93 1017.13 1017.33 1017.53 1017.65 1017.85 1018.09 1018.25 1018.41 1018.57 1018.77 1018.93 1019.09 1019.25 1019.45 1019.57 1019.69 1019.81 1019.85 1019.97 1020.17 1020.33 1020.45 1020.61 1020.73 1020.81 1020.89 1021.01 1021.13 1021.25 1021.45 1021.61 1021.65 1021.65 1021.77 1021.85 1021.97 1022.01 1022.09
1010.93 1011.09 1011.21 1011.37 1011.57 1011.73 1011.85 1012.01 1012.25 1012.53 1012.73 1012.85 1013.05 1013.25 1013.49 1013.65 1013.85 1014.09 1014.33 1014.53 1014.77 1014.97 1015.21 1015.37 1015.57 1015.77 1015.97 1016.13 1016.33 1016.53 1016.77 1016.97 1017.21 1017.37 1017.57 1017.77 1017.97 1018.09 1018.25 1018.49 1018.65 1018.81 1019.01 1019.17 1019.29 1019.41 1019.53 1019.65 1019.73 1019.81 1019.97 1020.13 1020.25 1020.41 1020.57 1020.69 1020.77 1020.89 1020.97 1021.09 1021.25 1021.41 1021.53 1021.53 1021.53 1021.61 1021.69 1021.81 1021.93
1010.81 1010.97 1011.17 1011.33 1011.53 1011.65 1011.81 1012.01 1012.25 1012.45 1012.65 1012.81 1012.97 1013.25 1013.49 1013.65 1013.81 1014.01 1014.21 1014.37 1014.57 1014.81 1015.01 1015.17 1015.41 1015.65 1015.85 1016.05 1016.21 1016.37 1016.61 1016.81 1016.97 1017.17 1017.37 1017.57 1017.77 1017.93 1018.09 1018.25 1018.45 1018.65 1018.81 1018.97 1019.13 1019.25 1019.37 1019.49 1019.53 1019.65 1019.81 1019.97 1020.09 1020.25 1020.41 1020.57 1020.65 1020.73 1020.81 1020.93 1021.05 1021.17 1021.25 1021.37 1021.37 1021.45 1021.53 1021.65 1021.77
1010.61 1010.81 1011.01 1011.21 1011.41 1011.61 1011.81 1012.01 1012.21 1012.41 1012.61 1012.73 1012.93 1013.17 1013.41 1013.65 1013.77 1013.89 1014.05 1014.21 1014.49 1014.73 1014.89 1015.01 1015.29 1015.53 1015.69 1015.89 1016.09 1016.25 1016.37 1016.57 1016.81 1017.01 1017.21 1017.37 1017.57 1017.73 1017.89 1018.05 1018.25 1018.41 1018.57 1018.77 1018.93 1019.09 1019.21 1019.29 1019.33 1019.45 1019.61 1019.81 1019.93 1020.09 1020.25 1020.37 1020.45 1020.53 1020.61 1020.69 1020.81 1020.93 1021.05 1021.13 1021.25 1021.37 1021.41 1021.49 1021.57
1010.45 1010.65 1010.81 1011.05 1011.29 1011.53 1011.77 1011.97 1012.13 1012.33 1012.53 1012.65 1012.85 1013.09 1013.33 1013.53 1013.65 1013.81 1013.97 1014.13 1014.37 1014.53 1014.69 1014.89 1015.13 1015.33 1015.49 1015.65 1015.89 1016.09 1016.25 1016.45 1016.61 1016.81 1017.01 1017.17 1017.37 1017.53 1017.69 1017.85 1018.01 1018.17 1018.37 1018.53 1018.69 1018.81 1018.93 1018.97 1019.09 1019.25 1019.41 1019.61 1019.81 1019.93 1020.05 1020.17 1020.25 1020.29 1020.37 1020.49 1020.61 1020.69 1020.81 1020.93 1021.01 1021.09 1021.17 1021.21 1021.37
1010.33 1010.53 1010.73 1010.93 1011.17 1011.41 1011.65 1011.81 1011.97 1012.17 1012.37 1012.53 1012.69 1012.93 1013.13 1013.37 1013.57 1013.73 1013.93 1014.05 1014.21 1014.37 1014.61 1014.81 1015.01 1015.17 1015.33 1015.49 1015.73 1015.97 1016.17 1016.37 1016.53 1016.65 1016.81 1017.01 1017.21 1017.37 1017.53 1017.65 1017.81 1017.97 1018.17 1018.29 1018.45 1018.53 1018.61 1018.73 1018.81 1018.93 1019.13 1019.37 1019.53 1019.65 1019.81 1019.89 1019.97 1020.05 1020.13 1020.25 1020.37 1020.45 1020.53 1020.65 1020.73 1020.81 1020.89 1020.97 1021.09
1010.21 1010.41 1010.61 1010.81 1011.05 1011.29 1011.49 1011.65 1011.81 1011.97 1012.17 1012.37 1012.53 1012.77 1012.97 1013.21 1013.45 1013.65 1013.77 1013.89 1014.05 1014.25 1014.49 1014.73 1014.93 1015.05 1015.17 1015.37 1015.61 1015.81 1016.05 1016.25 1016.41 1016.53 1016.69 1016.85 1017.09 1017.25 1017.37 1017.53 1017.65 1017.81 1017.97 1018.09 1018.25 1018.29 1018.37 1018.49 1018.61 1018.73 1018.89 1019.09 1019.25 1019.41 1019.53 1019.65 1019.69 1019.77 1019.85 1019.97 1020.09 1020.17 1020.25 1020.33 1020.45 1020.61 1020.73 1020.81 1020.85
1010.09 1010.29 1010.49 1010.65 1010.89 1011.09 1011.29 1011.45 1011.61 1011.77 1011.97 1012.13 1012.33 1012.53 1012.77 1013.01 1013.29 1013.49 1013.61 1013.73 1013.89 1014.09 1014.33 1014.57 1014.77 1014.93 1015.09 1015.25 1015.49 1015.69 1015.89 1016.09 1016.25 1016.41 1016.57 1016.73 1016.93 1017.09 1017.25 1017.33 1017.49 1017.65 1017.77 1017.89 1018.05 1018.13 1018.21 1018.25 1018.41 1018.53 1018.65 1018.85 1019.01 1019.17 1019.33 1019.49 1019.53 1019.53 1019.61 1019.65 1019.81 1019.89 1019.97 1020.09 1020.29 1020.49 1020.65 1020.77 1020.85
1009.93 1010.09 1010.33 1010.53 1010.69 1010.89 1011.09 1011.25 1011.37 1011.53 1011.65 1011.89 1012.09 1012.33 1012.53 1012.77 1013.09 1013.33 1013.49 1013.57 1013.73 1013.93 1014.13 1014.37 1014.53 1014.77 1015.01 1015.25 1015.37 1015.57 1015.77 1015.97 1016.09 1016.25 1016.45 1016.61 1016.81 1016.93 1017.09 1017.25 1017.37 1017.49 1017.65 1017.81 1017.97 1018.05 1018.13 1018.21 1018.33 1018.45 1018.57 1018.69 1018.81 1018.97 1019.13 1019.29 1019.37 1019.45 1019.49 1019.53 1019.61 1019.73 1019.85 1020.01 1020.25 1020.37 1020.53 1020.73 1020.85
1009.73 1009.89 1010.09 1010.29 1010.45 1010.61 1010.77 1010.93 1011.09 1011.25 1011.37 1011.57 1011.85 1012.09 1012.29 1012.53 1012.81 1013.09 1013.25 1013.37 1013.53 1013.69 1013.93 1014.09 1014.33 1014.61 1014.89 1015.17 1015.33 1015.49 1015.65 1015.81 1016.01 1016.21 1016.37 1016.53 1016.73 1016.89 1017.05 1017.17 1017.29 1017.41 1017.57 1017.73 1017.89 1018.05 1018.17 1018.25 1018.37 1018.49 1018.57 1018.65 1018.77 1018.85 1019.01 1019.17 1019.29 1019.37 1019.41 1019.49 1019.57 1019.69 1019.85 1019.97 1020.13 1020.29 1020.49 1020.65 1020.81
1009.45 1009.65 1009.81 1010.01 1010.17 1010.33 1010.49 1010.65 1010.77 1010.93 1011.09 1011.33 1011.61 1011.81 1012.05 1012.25 1012.53 1012.81 1013.01 1013.17 1013.33 1013.49 1013.65 1013.89 1014.17 1014.45 1014.73 1014.93 1015.21 1015.37 1015.53 1015.69 1015.97 1016.13 1016.33 1016.49 1016.65 1016.85 1017.01 1017.13 1017.25 1017.41 1017.57 1017.69 1017.81 1018.01 1018.17 1018.29 1018.41 1018.53 1018.65 1018.69 1018.77 1018.85 1018.97 1019.17 1019.29 1019.41 1019.49 1019.53 1019.61 1019.69 1019.81 1019.93 1020.09 1020.25 1020.41 1020.61 1020.73
1009.17 1009.33 1009.53 1009.69 1009.81 1010.01 1010.21 1010.37 1010.53 1010.65 1010.85 1011.09 1011.37 1011.57 1011.81 1011.97 1012.25 1012.53 1012.81 1013.01 1013.17 1013.29 1013.49 1013.69 1014.01 1014.33 1014.57 1014.81 1015.05 1015.25 1015.49 1015.65 1015.93 1016.13 1016.37 1016.53 1016.69 1016.85 1017.01 1017.13 1017.29 1017.45 1017.61 1017.69 1017.85 1018.01 1018.13 1018.25 1018.37 1018.53 1018.61 1018.65 1018.77 1018.85 1018.97 1019.09 1019.29 1019.45 1019.57 1019.61 1019.65 1019.81 1019.89 1019.97 1020.09 1020.25 1020.37 1020.53 1020.65
1008.85 1009.01 1009.13 1009.29 1009.49 1009.69 1009.89 1010.09 1010.29 1010.49 1010.69 1010.89 1011.13 1011.37 1011.57 1011.77 1011.97 1012.29 1012.61 1012.85 1013.05 1013.25 1013.37 1013.57 1013.85 1014.21 1014.53 1014.77 1015.01 1015.25 1015.53 1015.69 1015.97 1016.17 1016.37 1016.57 1016.73 1016.89 1017.01 1017.17 1017.33 1017.45 1017.61 1017.73 1017.89 1018.01 1018.09 1018.21 1018.33 1018.41 1018.53 1018.61 1018.73 1018.89 1019.01 1019.13 1019.29 1019.45 1019.57 1019.65 1019.73 1019.85 1019.97 1020.09 1020.13 1020.25 1020.37 1020.53 1020.65
1008.53 1008.65 1008.81 1008.97 1009.21 1009.41 1009.65 1009.85 1010.09 1010.33 1010.53 1010.69 1010.93 1011.17 1011.37 1011.57 1011.81 1012.05 1012.37 1012.65 1012.93 1013.13 1013.33 1013.49 1013.69 1014.05 1014.41 1014.73 1014.97 1015.25 1015.49 1015.73 1015.97 1016.21 1016.37 1016.53 1016.69 1016.85 1017.05 1017.21 1017.37 1017.53 1017.61 1017.69 1017.81 1017.93 1018.05 1018.17 1018.25 1018.37 1018.53 1018.61 1018.73 1018.85 1018.97 1019.13 1019.29 1019.41 1019.53 1019.65 1019.77 1019.89 1020.01 1020.09 1020.17 1020.25 1020.37 1020.53 1020.65
1008.17 1008.33 1008.53 1008.77 1008.93 1009.17 1009.41 1009.65 1009.93 1010.17 1010.37 1010.53 1010.81 1011.01 1011.21 1011.41 1011.61 1011.85 1012.17 1012.53 1012.85 1013.09 1013.25 1013.41 1013.61 1013.93 1014.25 1014.57 1014.89 1015.13 1015.37 1015.65 1015.93 1016.13 1016.29 1016.49 1016.65 1016.85 1017.05 1017.25 1017.37 1017.49 1017.61 1017.65 1017.77 1017.93 1018.09 1018.21 1018.25 1018.37 1018.49 1018.61 1018.65 1018.77 1018.85 1018.97 1019.17 1019.29 1019.45 1019.57 1019.73 1019.85 1019.97 1020.01 1020.13 1020.25 1020.33 1020.45 1020.61
1007.89 1008.09 1008.25 1008.53 1008.73 1009.01 1009.25 1009.53 1009.77 1010.01 1010.21 1010.37 1010.61 1010.81 1011.05 1011.25 1011.45 1011.73 1012.05 1012.41 1012.69 1012.93 1013.09 1013.29 1013.53 1013.77 1014.05 1014.37 1014.73 1015.01 1015.25 1015.53 1015.81 1016.01 1016.21 1016.37 1016.57 1016.81 1016.97 1017.17 1017.29 1017.37 1017.45 1017.53 1017.61 1017.77 1017.97 1018.09 1018.17 1018.25 1018.37 1018.45 1018.53 1018.61 1018.65 1018.81 1018.93 1019.09 1019.25 1019.37 1019.53 1019.65 1019.81 1019.93 1020.01 1020.13 1020.25 1020.37 1020.41
1007.77 1007.97 1008.21 1008.37 1008.65 1008.93 1009.17 1009.41 1009.69 1009.89 1010.05 1010.21 1010.37 1010.57 1010.81 1011.05 1011.33 1011.65 1011.97 1012.29 1012.53 1012.81 1013.01 1013.25 1013.45 1013.69 1013.97 1014.33 1014.65 1014.93 1015.17 1015.49 1015.73 1015.93 1016.05 1016.21 1016.41 1016.65 1016.81 1016.93 1017.09 1017.13 1017.21 1017.21 1017.25 1017.37 1017.57 1017.81 1017.93 1018.05 1018.17 1018.25 1018.37 1018.41 1018.53 1018.57 1018.65 1018.77 1018.89 1019.09 1019.25 1019.41 1019.53 1019.69 1019.81 1019.97 1020.09 1020.13 1020.17
1007.73 1007.93 1008.09 1008.33 1008.53 1008.81 1009.09 1009.33 1009.53 1009.77 1009.89 1009.97 1010.17 1010.37 1010.53 1010.77 1011.05 1011.37 1011.73 1012.09 1012.41 1012.69 1012.97 1013.25 1013.53 1013.81 1014.09 1014.37 1014.65 1014.89 1015.21 1015.53 1015.69 1015.81 1015.89 1016.01 1016.21 1016.37 1016.57 1016.69 1016.81 1016.89 1016.93 1016.93 1016.93 1017.05 1017.17 1017.33 1017.49 1017.65 1017.85 1018.01 1018.17 1018.25 1018.29 1018.37 1018.41 1018.53 1018.61 1018.81 1019.01 1019.17 1019.33 1019.49 1019.61 1019.77 1019.81 1019.81 1019.85
1007.65 1007.81 1008.01 1008.17 1008.37 1008.61 1008.81 1009.09 1009.29 1009.53 1009.77 1009.97 1010.13 1010.25 1010.37 1010.53 1010.73 1011.05 1011.41 1011.89 1012.33 1012.65 1012.97 1013.25 1013.57 1013.89 1014.17 1014.37 1014.65 1014.93 1015.29 1015.57 1015.65 1015.65 1015.65 1015.81 1015.97 1016.13 1016.25 1016.37 1016.49 1016.53 1016.57 1016.61 1016.69 1016.81 1016.93 1017.05 1017.21 1017.37 1017.57 1017.77 1017.89 1018.01 1018.09 1018.17 1018.25 1018.33 1018.49 1018.65 1018.81 1019.01 1019.13 1019.25 1019.37 1019.49 1019.53 1019.61 1019.61
1007.49 1007.65 1007.81 1007.97 1008.25 1008.41 1008.61 1008.81 1009.09 1009.37 1009.69 1009.97 1010.25 1010.45 1010.53 1010.61 1010.77 1011.01 1011.37 1011.85 1012.33 1012.73 1013.05 1013.33 1013.65 1013.97 1014.25 1014.49 1014.73 1015.01 1015.25 1015.41 1015.45 1015.45 1015.45 1015.49 1015.61 1015.73 1015.81 1015.93 1015.97 1016.05 1016.13 1016.25 1016.41 1016.57 1016.77 1016.89 1017.01 1017.21 1017.37 1017.49 1017.65 1017.77 1017.89 1017.97 1018.09 1018.25 1018.37 1018.53 1018.65 1018.81 1018.93 1019.05 1019.13 1019.25 1019.33 1019.37 1019.37
1007.29 1007.49 1007.69 1007.93 1008.17 1008.37 1008.57 1008.81 1009.01 1009.25 1009.49 1009.81 1010.17 1010.53 1010.77 1010.93 1011.09 1011.29 1011.61 1011.97 1012.41 1012.81 1013.21 1013.45 1013.81 1014.17 1014.49 1014.57 1014.53 1014.53 1014.65 1014.85 1015.05 1015.17 1015.25 1015.29 1015.29 1015.29 1015.33 1015.41 1015.53 1015.57 1015.65 1015.81 1016.09 1016.33 1016.53 1016.77 1016.93 1017.09 1017.25 1017.33 1017.41 1017.53 1017.65 1017.81 1017.93 1018.09 1018.25 1018.37 1018.53 1018.69 1018.81 1018.89 1018.93 1018.97 1019.09 1019.21 1019.29
1007.17 1007.41 1007.65 1007.89 1008.09 1008.33 1008.53 1008.77 1008.97 1009.21 1009.37 1009.65 1009.97 1010.33 1010.65 1010.97 1011.25 1011.49 1011.77 1012.09 1012.45 1012.85 1013.25 1013.57 1013.85 1014.21 1014.37 1014.33 1014.13 1014.05 1014.09 1014.37 1014.65 1014.93 1015.13 1015.25 1015.17 1015.13 1015.09 1015.13 1015.21 1015.25 1015.37 1015.57 1015.77 1016.01 1016.29 1016.57 1016.81 1016.93 1017.09 1017.25 1017.25 1017.37 1017.53 1017.65 1017.77 1017.97 1018.09 1018.25 1018.41 1018.57 1018.65 1018.69 1018.69 1018.81 1018.93 1019.13 1019.25
1007.09 1007.33 1007.57 1007.81 1007.97 1008.21 1008.41 1008.65 1008.85 1009.09 1009.41 1009.69 1009.97 1010.25 1010.61 1010.93 1011.25 1011.53 1011.81 1012.09 1012.45 1012.73 1013.05 1013.41 1013.81 1013.93 1013.89 1013.89 1014.05 1014.21 1014.29 1014.37 1014.49 1014.65 1014.81 1014.93 1014.97 1014.93 1014.93 1014.97 1015.05 1015.13 1015.29 1015.45 1015.61 1015.81 1016.05 1016.33 1016.65 1016.85 1017.05 1017.21 1017.21 1017.25 1017.37 1017.53 1017.65 1017.81 1017.97 1018.05 1018.21 1018.33 1018.37 1018.45 1018.53 1018.69 1018.89 1019.09 1019.21
1006.97 1007.21 1007.45 1007.65 1007.85 1008.09 1008.25 1008.49 1008.77 1009.05 1009.37 1009.65 1009.97 1010.25 1010.53 1010.81 1011.13 1011.41 1011.69 1011.97 1012.33 1012.57 1012.81 1013.13 1013.45 1013.61 1013.69 1013.89 1014.13 1014.33 1014.37 1014.37 1014.37 1014.37 1014.45 1014.57 1014.65 1014.73 1014.81 1014.89 1014.97 1015.17 1015.37 1015.53 1015.53 1015.65 1015.89 1016.17 1016.49 1016.73 1016.93 1017.17 1017.21 1017.25 1017.33 1017.41 1017.53 1017.65 1017.77 1017.81 1017.93 1018.01 1018.13 1018.29 1018.49 1018.65 1018.81 1018.93 1019.13
1006.81 1007.05 1007.25 1007.49 1007.69 1007.93 1008.13 1008.37 1008.69 1009.01 1009.29 1009.57 1009.89 1010.21 1010.45 1010.69 1010.93 1011.25 1011.53 1011.85 1012.09 1012.37 1012.65 1012.93 1013.21 1013.49 1013.73 1013.97 1014.13 1014.25 1014.33 1014.37 1014.37 1014.37 1014.41 1014.53 1014.65 1014.77 1014.89 1015.01 1015.09 1015.25 1015.45 1015.69 1015.65 1015.69 1015.85 1016.09 1016.37 1016.65 1016.93 1017.13 1017.21 1017.21 1017.25 1017.37 1017.49 1017.57 1017.65 1017.69 1017.81 1017.89 1018.01 1018.17 1018.37 1018.61 1018.77 1018.89 1019.05
1006.65 1006.85 1007.09 1007.29 1007.53 1007.81 1008.05 1008.37 1008.65 1008.93 1009.25 1009.53 1009.81 1010.13 1010.41 1010.65 1010.85 1011.09 1011.37 1011.65 1011.89 1012.13 1012.41 1012.69 1013.01 1013.33 1013.61 1013.81 1013.97 1014.09 1014.17 1014.25 1014.33 1014.37 1014.53 1014.69 1014.85 1014.97 1015.09 1015.21 1015.25 1015.33 1015.53 1015.81 1015.77 1015.77 1015.93 1016.09 1016.37 1016.61 1016.89 1017.13 1017.21 1017.21 1017.25 1017.37 1017.45 1017.53 1017.65 1017.73 1017.81 1017.89 1018.05 1018.21 1018.37 1018.53 1018.69 1018.81 1019.01
1006.49 1006.69 1006.93 1007.21 1007.41 1007.69 1007.97 1008.29 1008.61 1008.89 1009.17 1009.41 1009.69 1009.97 1010.29 1010.61 1010.85 1011.05 1011.25 1011.49 1011.73 1011.97 1012.25 1012.53 1012.81 1013.05 1013.25 1013.41 1013.57 1013.69 1013.85 1014.01 1014.17 1014.37 1014.61 1014.81 1014.97 1015.09 1015.17 1015.21 1015.21 1015.37 1015.65 1015.81 1015.81 1015.89 1016.01 1016.17 1016.37 1016.57 1016.85 1017.09 1017.17 1017.21 1017.25 1017.37 1017.45 1017.53 1017.65 1017.81 1017.93 1018.05 1018.13 1018.25 1018.37 1018.53 1018.65 1018.77 1018.93
1006.25 1006.53 1006.77 1007.05 1007.33 1007.65 1007.93 1008.21 1008.53 1008.81 1009.09 1009.37 1009.61 1009.85 1010.21 1010.53 1010.73 1010.81 1011.01 1011.29 1011.65 1011.93 1012.17 1012.41 1012.69 1012.93 1013.09 1013.21 1013.29 1013.45 1013.65 1013.81 1014.09 1014.29 1014.53 1014.77 1014.93 1015.05 1015.13 1015.21 1015.29 1015.53 1015.73 1015.85 1015.93 1016.01 1016.09 1016.25 1016.37 1016.53 1016.77 1017.01 1017.13 1017.25 1017.33 1017.37 1017.49 1017.57 1017.69 1017.85 1018.01 1018.09 1018.25 1018.33 1018.45 1018.57 1018.65 1018.77 1018.93
1006.05 1006.29 1006.57 1006.85 1007.25 1007.53 1007.85 1008.13 1008.37 1008.65 1008.89 1009.17 1009.41 1009.73 1010.09 1010.41 1010.53 1010.61 1010.81 1011.13 1011.53 1011.81 1012.05 1012.33 1012.65 1012.93 1013.09 1013.21 1013.25 1013.37 1013.53 1013.69 1013.97 1014.25 1014.45 1014.65 1014.81 1014.93 1015.09 1015.25 1015.53 1015.73 1015.89 1015.93 1015.97 1016.09 1016.17 1016.25 1016.37 1016.53 1016.73 1016.93 1017.09 1017.21 1017.33 1017.41 1017.53 1017.65 1017.77 1017.89 1018.09 1018.25 1018.37 1018.53 1018.65 1018.77 1018.81 1018.89 1018.97
1005.81 1006.09 1006.37 1006.69 1007.05 1007.41 1007.77 1008.05 1008.25 1008.53 1008.77 1009.01 1009.25 1009.65 1009.97 1010.25 1010.37 1010.45 1010.65 1010.97 1011.33 1011.65 1011.93 1012.21 1012.53 1012.77 1012.93 1013.09 1013.25 1013.37 1013.53 1013.73 1013.97 1014.17 1014.37 1014.53 1014.69 1014.89 1015.09 1015.37 1015.65 1015.85 1015.97 1016.01 1016.05 1016.09 1016.21 1016.25 1016.37 1016.49 1016.65 1016.85 1017.01 1017.17 1017.29 1017.41 1017.53 1017.69 1017.89 1018.09 1018.29 1018.49 1018.65 1018.81 1018.93 1019.05 1019.09 1019.13 1019.25
1005.65 1005.93 1006.21 1006.53 1006.89 1007.25 1007.61 1007.97 1008.25 1008.45 1008.65 1008.89 1009.21 1009.61 1009.93 1010.09 1010.29 1010.45 1010.65 1010.93 1011.21 1011.49 1011.81 1012.09 1012.33 1012.53 1012.77 1012.97 1013.21 1013.41 1013.61 1013.81 1013.97 1014.13 1014.33 1014.53 1014.65 1014.85 1015.09 1015.45 1015.65 1015.81 1015.97 1016.09 1016.13 1016.17 1016.25 1016.25 1016.37 1016.49 1016.57 1016.77 1016.93 1017.09 1017.25 1017.45 1017.65 1017.81 1018.01 1018.29 1018.53 1018.81 1019.01 1019.17 1019.33 1019.45 1019.53 1019.57 1019.65
1005.57 1005.81 1006.09 1006.41 1006.81 1007.17 1007.53 1007.93 1008.21 1008.41 1008.65 1008.93 1009.29 1009.61 1009.89 1010.05 1010.25 1010.49 1010.65 1010.81 1011.09 1011.37 1011.65 1011.97 1012.21 1012.45 1012.69 1012.97 1013.25 1013.57 1013.81 1013.97 1014.09 1014.21 1014.37 1014.57 1014.77 1014.93 1015.17 1015.49 1015.73 1015.89 1016.01 1016.09 1016.17 1016.25 1016.29 1016.33 1016.41 1016.53 1016.65 1016.77 1016.93 1017.05 1017.25 1017.49 1017.65 1017.89 1018.13 1018.49 1018.81 1019.13 1019.37 1019.53 1019.73 1019.89 1020.05 1020.17 1020.21
1005.61 1005.85 1006.13 1006.45 1006.81 1007.21 1007.53 1007.85 1008.13 1008.41 1008.73 1009.01 1009.29 1009.53 1009.77 1009.97 1010.25 1010.45 1010.61 1010.77 1010.93 1011.25 1011.57 1011.89 1012.17 1012.45 1012.81 1013.13 1013.45 1013.81 1014.13 1014.29 1014.37 1014.49 1014.65 1014.81 1015.01 1015.13 1015.29 1015.53 1015.81 1015.97 1016.09 1016.17 1016.25 1016.25 1016.33 1016.41 1016.49 1016.61 1016.69 1016.77 1016.89 1017.05 1017.25 1017.49 1017.73 1017.97 1018.29 1018.65 1018.97 1019.37 1019.65 1019.89 1020.05 1020.25 1020.37 1020.53 1020.65
1005.77 1006.05 1006.33 1006.65 1006.97 1007.33 1007.65 1007.97 1008.21 1008.49 1008.77 1009.01 1009.25 1009.45 1009.73 1009.97 1010.25 1010.41 1010.57 1010.77 1011.01 1011.33 1011.65 1011.97 1012.37 1012.73 1013.09 1013.45 1013.81 1014.13 1014.45 1014.69 1014.89 1015.01 1015.09 1015.25 1015.37 1015.53 1015.61 1015.77 1015.93 1016.05 1016.17 1016.25 1016.33 1016.37 1016.45 1016.53 1016.61 1016.69 1016.81 1016.81 1016.93 1017.09 1017.25 1017.49 1017.81 1018.09 1018.41 1018.81 1019.09 1019.49 1019.81 1020.09 1020.29 1020.49 1020.65 1020.81 1020.93
Wind_Speed
10 9 8 7 7 7 6 6 6 6 6 7 7 7 7 7 7 6 6 6 5 5 5 5 6 6 7 9 10 10 10 9 9 9 9 10 9 9 9 9 9 9 9 9 9 8 8 8 7 6 5 5 6 7 7 7 7 7 7 7 6 6 7 8 8 9 10 10 8
11 10 9 8 7 7 6 6 6 6 6 6 6 7 7 7 7 7 7 7 6 6 5 5 6 7 8 9 10 10 10 10 10 10 9 10 10 10 9 9 9 9 10 9 9 8 7 8 7 6 5 5 6 7 7 7 7 7 7 8 6 5 5 7 8 9 9 9 7
11 11 10 9 9 8 7 7 7 7 8 7 6 6 7 6 6 6 6 7 7 7 6 5 6 8 9 9 9 9 10 10 10 10 10 9 10 10 9 9 10 10 10 9 9 8 8 8 7 6 6 5 7 7 7 6 6 7 7 8 6 5 4 5 6 7 6 6 6
12 11 11 11 11 10 9 8 8 9 8 7 7 7 6 6 6 6 6 7 7 7 7 7 7 8 8 9 9 9 9 10 10 10 10 9 10 10 10 10 10 10 10 9 9 9 9 9 7 6 6 7 8 7 7 6 6 6 6 6 5 5 5 4 5 5 5 5 6
12 11 11 11 12 11 10 9 10 9 8 7 7 6 6 6 6 6 6 6 7 7 7 8 7 7 8 9 10 10 10 10 10 10 10 10 10 10 10 10 10 10 10 9 10 9 9 9 6 5 6 7 7 7 6 7 7 6 5 4 4 5 5 4 4 5 5 5 5
12 12 11 11 12 11 9 9 10 10 9 8 8 8 8 7 6 7 7 7 7 8 8 8 8 8 8 9 10 10 10 10 10 10 10 10 10 10 10 10 10 10 9 9 10 10 9 9 6 5 5 5 6 6 7 8 7 7 6 5 5 5 5 5 5 5 6 6 7
12 12 12 12 12 11 10 10 10 10 9 8 10 10 10 9 9 9 9 8 8 8 8 7 8 8 9 10 10 10 10 10 10 10 11 10 10 10 10 10 10 10 10 10 10 10 9 9 6 5 5 5 5 6 7 8 8 7 7 6 5 5 6 7 6 6 7 9 10
12 12 12 12 13 12 12 11 11 10 9 8 10 12 12 12 12 11 10 9 8 8 8 8 9 10 10 10 10 10 10 10 10 10 10 10 10 11 11 10 10 10 10 10 10 10 9 8 6 6 6 5 5 6 7 9 9 8 8 8 6 6 6 7 7 7 8 10 11
11 12 12 12 12 12 12 12 12 11 11 10 11 12 13 12 13 12 11 9 9 9 9 9 10 11 12 11 11 11 11 11 11 11 10 10 11 11 11 10 11 11 10 10 10 11 10 7 6 6 6 6 6 6 8 10 10 10 9 8 7 7 7 7 8 8 9 10 11
12 12 12 12 12 12 12 12 12 12 12 12 12 12 12 11 12 11 11 9 9 9 10 10 11 12 12 12 12 11 11 11 11 11 11 11 12 12 12 11 11 11 11 10 10 11 10 8 7 7 7 6 7 8 9 10 11 10 9 7 8 9 9 9 9 9 9 9 10
13 13 13 12 13 13 12 12 12 12 12 12 12 12 12 11 11 11 10 9 10 10 11 11 12 12 12 12 11 11 11 11 11 11 12 12 13 13 13 12 12 12 12 11 10 10 9 8 8 9 9 8 8 9 10 11 11 11 10 8 9 10 11 10 10 9 9 10 10
14 14 13 13 13 13 13 13 11 11 12 12 12 12 12 12 12 11 11 11 11 12 12 12 12 13 12 11 11 11 11 11 11 12 12 13 13 13 13 13 13 13 13 12 11 10 9 9 10 11 11 10 8 8 10 12 12 12 11 10 10 10 11 11 11 10 9 10 10
14 14 14 14 14 14 14 13 12 11 12 13 13 12 12 12 12 12 12 12 12 11 11 11 12 12 12 11 11 10 10 11 12 12 12 13 13 13 13 13 13 13 13 12 11 10 10 10 11 12 12 12 10 9 10 12 12 12 12 12 11 11 12 12 12 12 11 11 11
14 14 14 14 14 14 14 13 12 11 12 13 13 12 12 11 12 12 12 13 12 11 11 11 11 11 11 11 11 11 11 11 12 12 12 13 13 13 13 13 14 13 13 11 12 11 11 11 12 13 13 13 12 11 11 12 13 13 13 13 13 13 13 13 13 12 11 11 11
15 15 15 15 15 14 13 13 12 11 12 13 13 12 11 11 11 11 12 13 13 12 11 11 10 10 10 11 12 12 12 12 12 13 13 13 13 13 13 13 13 13 12 11 11 12 12 12 13 13 12 13 13 12 12 12 12 12 13 13 13 13 13 12 11 11 10 10 10
15 15 15 15 15 14 14 13 11 11 12 13 13 12 12 11 11 11 12 13 12 11 11 12 11 10 10 11 12 12 12 12 12 12 12 12 12 13 13 12 13 13 12 12 11 11 11 11 11 11 11 12 12 12 12 12 12 12 12 12 12 11 11 10 10 9 9 9 9
16 16 16 16 16 16 15 14 12 11 12 13 13 13 12 11 11 11 12 13 12 11 12 13 12 10 10 10 11 11 11 11 11 11 11 11 12 12 12 12 11 11 11 11 11 11 10 9 9 9 9 10 10 11 11 12 11 11 11 10 10 9 9 8 8 8 8 8 8
16 16 16 16 17 17 16 16 14 13 13 14 14 13 13 12 12 12 12 13 13 13 14 14 12 11 11 11 11 10 10 10 10 10 10 11 11 11 11 11 11 10 11 11 11 11 10 9 8 8 8 9 9 9 9 9 9 9 8 8 8 7 7 7 8 8 7 8 7
17 17 17 17 18 17 17 17 16 15 14 14 14 13 13 14 13 13 12 13 13 14 14 14 13 12 11 12 11 10 9 9 10 10 10 10 11 11 11 11 10 10 10 10 10 9 9 9 8 8 8 8 7 7 6 6 6 6 6 6 6 6 6 6 6 6 6 7 7
17 18 18 18 18 17 17 17 16 15 14 13 14 14 14 15 14 14 14 13 13 13 14 14 13 12 12 12 12 10 9 8 9 9 10 10 11 11 11 10 10 9 9 8 8 8 8 8 7 7 7 7 6 6 5 5 5 6 6 6 5 5 5 5 5 5 6 6 6
18 18 18 18 17 17 17 16 15 15 14 13 14 15 15 15 15 15 15 14 13 13 13 14 13 13 13 12 12 11 9 8 8 9 10 10 11 11 10 10 9 8 8 7 7 7 7 7 7 8 8 8 8 7 7 6 6 6 6 6 5 5 5 5 5 5 6 7 8
18 18 17 17 17 16 16 15 15 15 14 14 14 15 15 15 15 15 15 14 13 14 14 14 14 14 14 13 13 12 10 8 9 9 9 10 10 10 9 9 9 9 8 8 8 8 9 9 10 10 10 10 10 10 9 9 8 8 8 8 7 7 6 6 6 7 8 9 10
17 16 16 16 16 15 15 14 14 14 14 14 15 15 15 15 15 15 14 13 13 14 14 13 13 14 14 14 13 12 11 9 9 9 9 9 9 10 9 9 10 11 11 11 11 12 12 12 12 12 11 11 11 12 12 11 11 10 10 10 10 9 9 8 8 9 10 11 12
13 12 12 11 12 13 13 12 12 13 14 15 15 16 16 16 15 15 14 14 14 14 13 11 11 12 12 13 12 12 11 11 10 10 10 10 10 11 11 10 11 12 12 11 12 13 13 11 11 11 11 11 11 12 12 13 12 12 11 11 11 10 10 10 10 11 12 13 12
11 10 10 9 10 11 11 11 12 12 13 15 16 16 16 17 16 15 14 14 14 13 12 11 11 11 11 11 12 11 11 11 11 12 12 12 12 12 12 11 12 12 11 11 13 14 14 12 10 10 10 10 11 11 11 12 12 12 11 10 10 10 10 10 11 12 13 13 13
11 11 11 11 11 12 13 13 13 13 12 13 14 14 15 16 15 15 15 14 13 12 11 11 11 11 10 10 11 11 11 11 12 13 14 14 14 14 14 13 12 11 11 11 14 16 16 14 12 10 10 10 10 10 10 10 11 11 10 10 9 9 9 10 11 12 13 12 12
11 12 12 12 12 13 13 13 13 12 11 10 10 10 11 11 10 11 12 12 12 11 10 10 10 9 8 9 11 13 13 13 13 14 15 16 17 17 17 15 13 12 11 13 15 16 17 16 14 12 11 10 10 10 9 9 10 10 10 9 9 10 10 10 11 11 12 11 11
12 11 11 11 11 12 12 12 12 12 11 10 9 8 8 7 8 9 10 11 11 10 9 8 8 7 6 8 13 16 17 16 15 15 15 16 18 19 18 15 14 13 13 15 16 17 17 17 16 14 12 10 9 9 9 8 9 9 9 8 8 9 10 10 10 10 10 10 10
11 11 11 11 11 11 11 11 11 11 11 10 10 10 10 10 10 10 11 12 12 11 9 7 7 7 9 11 14 15 16 16 15 15 15 16 17 18 18 16 14 13 13 16 17 18 18 18 17 16 14 10 8 7 7 7 7 7 7 7 7 8 9 10 9 8 8 8 8
11 11 11 11 11 11 11 11 12 11 11 10 11 12 12 12 12 13 13 14 13 12 10 9 9 10 12 12 11 12 12 14 14 15 16 17 18 18 17 16 14 13 13 15 17 18 18 18 17 16 15 12 8 6 6 6 6 6 6 6 8 9 10 9 9 8 7 7 8
12 12 12 12 12 12 12 12 12 12 12 11 12 13 14 14 14 14 14 14 13 12 11 12 12 12 12 11 10 11 12 13 14 15 16 18 18 17 16 15 14 12 11 13 15 17 17 18 17 16 15 12 8 6 5 5 6 6 6 7 8 9 9 8 8 8 8 8 8
12 12 13 13 13 13 13 13 13 13 14 14 14 14 14 15 15 15 14 13 13 13 13 12 12 12 11 11 11 12 13 14 14 14 14 14 15 14 14 13 13 11 9 11 13 15 16 16 15 15 14 12 8 7 6 5 5 5 5 6 7 7 7 6 6 7 8 8 8
13 13 13 13 14 14 14 14 14 14 15 15 15 15 15 15 15 15 14 13 13 13 13 13 12 12 12 13 13 14 14 14 14 13 12 12 12 12 11 11 11 8 6 9 11 12 13 13 13 12 12 11 9 7 7 5 5 4 4 4 5 5 6 6 6 7 8 8 8
14 14 14 14 14 14 14 15 15 15 15 15 15 16 15 15 15 15 14 12 11 11 11 12 12 13 14 14 15 15 15 13 13 13 12 12 11 11 11 10 8 5 4 7 9 9 10 10 10 11 11 10 8 7 6 5 4 4 4 4 4 4 5 5 6 7 7 8 7
15 15 15 15 15 15 15 16 16 16 16 16 16 16 16 15 15 13 12 9 9 9 10 10 11 12 13 14 14 15 15 14 14 13 13 13 12 12 12 10 5 2 4 7 8 8 8 9 9 10 10 8 6 5 5 5 4 4 4 5 5 5 5 5 5 5 6 6 7
16 16 16 16 16 16 16 17 17 17 17 16 16 16 15 13 12 10 9 8 9 10 10 10 11 11 12 13 13 13 14 14 14 14 13 13 13 12 10 7 2 2 3 6 7 8 9 9 10 10 9 7 5 5 4 4 4 5 6 6 6 6 6 5 5 4 4 5 6
16 17 17 17 17 17 17 17 17 17 17 16 16 15 13 11 9 9 9 9 10 10 11 11 12 12 13 13 12 12 12 12 12 12 12 11 11 10 8 5 3 2 2 4 7 8 9 10 10 10 9 6 5 5 4 4 4 5 6 7 7 7 7 6 6 6 6 6 7
16 17 17 17 17 17 17 16 16 16 16 16 15 13 11 9 9 9 9 9 10 11 11 12 12 13 13 12 10 9 8 7 8 9 9 8 7 7 7 5 4 2 2 3 5 7 9 9 10 10 9 6 6 5 5 4 5 6 6 7 7 8 8 7 7 7 8 9 10
15 16 17 17 17 17 17 16 15 15 15 15 13 12 10 9 8 8 9 9 11 11 12 12 12 11 10 9 8 6 5 4 4 5 6 6 6 6 7 6 4 3 2 3 5 7 8 9 10 10 9 7 6 6 5 5 6 7 7 7 8 8 8 7 7 8 9 11 13
14 15 15 16 16 16 16 16 15 14 13 13 12 11 10 9 8 8 8 9 10 10 10 10 10 9 8 7 8 8 8 7 7 6 7 7 7 7 7 7 5 4 3 3 5 7 8 9 10 10 8 6 6 6 6 6 7 8 8 8 8 7 7 7 7 7 8 10 11
12 13 13 14 14 15 15 14 13 13 12 11 11 10 9 9 9 9 9 9 10 9 9 8 9 10 9 9 9 10 10 10 9 9 9 8 8 7 7 7 6 5 4 4 5 6 8 9 10 9 8 6 6 6 6 6 7 9 9 9 8 7 7 7 7 7 7 8 8
Wind_Direction
155 156 156 155 156 157 157 155 157 159 161 162 162 162 164 169 166 168 172 174 178 181 182 183 179 179 178 172 171 176 181 181 177 178 181 183 183 180 176 171 171 171 171 170 169 172 176 180 179 179 183 190 195 198 199 196 190 191 193 194 195 194 195 201 206 206 206 206 203
159 158 156 154 156 156 154 152 155 160 163 164 164 164 166 170 169 171 175 178 181 182 180 180 178 177 174 170 171 174 178 179 177 178 180 183 183 179 175 173 176 177 176 173 172 173 176 179 179 180 182 187 195 198 199 198 190 189 192 196 194 192 195 204 208 207 206 207 202
162 161 159 160 162 161 159 157 161 165 167 166 166 166 168 172 172 174 177 180 182 180 178 177 177 174 170 167 170 174 177 179 179 179 180 183 182 179 177 175 178 179 179 176 176 175 176 177 179 180 182 185 192 195 195 191 188 190 193 196 190 187 193 207 209 206 203 204 198
166 165 165 167 168 168 167 164 166 168 169 167 167 168 170 174 174 175 177 178 179 180 180 179 175 170 167 166 169 173 176 179 180 181 182 182 180 179 177 176 179 180 180 179 178 177 175 176 179 182 185 187 192 194 191 182 186 190 193 193 188 189 195 203 201 197 196 201 199
171 171 171 172 173 173 171 168 168 169 170 168 168 170 174 178 177 176 174 175 180 182 181 179 173 168 166 166 168 171 174 176 179 182 184 182 180 179 179 180 181 181 180 179 178 175 174 176 180 185 188 187 191 192 188 176 182 187 190 187 192 195 196 197 194 194 196 199 200
177 177 177 176 177 177 176 171 170 171 173 173 173 176 179 180 180 179 179 180 180 177 175 173 169 165 163 165 167 170 172 175 179 183 184 182 179 178 179 181 182 180 178 178 174 173 173 177 181 185 187 188 192 189 182 174 181 187 190 189 196 198 198 197 196 199 202 204 204
181 181 181 179 180 181 180 175 173 174 177 177 179 182 184 184 184 184 183 181 174 171 170 170 169 166 165 167 169 171 173 175 179 182 183 180 178 178 180 181 180 179 177 176 173 174 176 181 183 184 183 183 185 183 181 179 184 189 192 193 194 198 201 202 199 202 206 209 208
184 185 184 182 182 184 184 179 175 176 180 183 184 187 188 187 185 184 183 180 174 173 174 176 175 172 171 172 174 174 175 175 178 181 182 178 177 179 180 179 179 179 178 177 176 177 180 183 186 184 181 182 180 181 182 183 185 190 195 196 194 198 203 206 202 204 208 210 209
186 187 188 186 186 187 187 183 179 180 184 188 188 188 189 188 186 184 183 183 179 177 178 180 178 176 175 176 176 176 177 177 179 180 180 178 178 179 180 179 180 179 179 178 179 179 180 183 186 185 183 182 181 180 181 183 186 191 196 199 196 198 203 207 204 205 207 208 209
187 188 189 189 188 189 189 187 184 184 187 190 189 188 187 187 186 185 185 185 179 179 181 181 178 177 177 178 179 179 179 179 179 180 180 180 180 181 181 181 180 179 179 179 179 179 180 182 187 187 184 182 180 178 178 182 186 191 195 199 199 201 204 207 206 206 207 208 210
188 189 189 190 189 189 189 189 188 188 190 192 190 188 186 187 187 187 187 184 179 182 184 181 178 178 179 180 181 181 181 181 180 181 181 183 183 183 183 183 181 180 179 179 179 179 181 185 188 187 184 181 179 178 179 183 188 193 197 200 201 203 205 207 206 206 208 210 211
190 190 191 191 189 189 190 191 191 192 193 195 192 189 188 189 189 188 186 183 181 183 184 180 179 179 181 182 182 182 181 180 180 181 182 185 185 185 184 184 183 181 180 179 179 181 184 187 188 186 183 181 181 181 183 186 191 195 199 201 201 203 205 206 206 207 208 208 209
192 191 192 192 190 190 191 193 194 194 196 197 195 192 190 191 189 187 185 184 183 183 183 180 181 182 183 183 181 180 180 180 181 182 184 185 185 185 185 185 184 183 181 180 181 183 185 187 187 186 184 183 185 186 187 189 194 197 200 201 201 204 206 206 206 206 207 207 206
194 193 193 192 191 191 192 195 196 197 197 198 197 194 192 191 188 187 187 187 186 184 182 181 183 185 185 182 179 179 179 180 181 183 184 184 184 184 185 186 185 184 183 182 183 185 186 187 187 187 186 186 188 189 190 191 196 199 201 201 202 205 207 208 206 205 205 206 207
196 195 194 193 192 193 194 196 198 199 199 199 198 196 193 190 188 188 189 190 188 185 182 182 186 187 185 180 178 178 179 180 181 183 184 183 183 184 185 186 185 185 185 183 185 187 188 188 188 188 188 188 191 191 192 194 199 202 203 203 204 206 208 208 205 204 204 205 208
198 197 196 195 194 195 196 197 199 200 200 199 198 196 193 190 187 188 190 190 188 186 185 186 187 185 181 179 178 178 179 180 181 182 182 181 182 183 185 185 185 186 186 184 185 188 190 190 188 189 190 191 193 193 194 196 201 204 206 206 207 208 208 207 204 201 201 202 205
200 199 197 197 197 198 198 198 200 200 200 199 197 196 194 191 187 188 190 190 189 188 188 189 187 182 178 179 178 179 179 180 180 180 180 178 179 181 183 184 185 185 184 183 184 187 190 191 190 192 193 195 196 197 197 199 203 206 209 210 210 210 209 205 200 196 194 195 201
201 201 200 199 200 200 200 200 201 201 200 198 196 195 195 192 188 188 189 191 191 190 190 189 185 180 177 178 179 179 180 179 179 179 179 177 177 179 181 183 183 182 182 182 184 186 188 190 191 193 196 198 199 199 199 199 204 209 212 214 213 211 207 200 192 188 187 191 200
203 202 202 202 202 202 202 202 202 201 200 197 195 195 195 193 189 188 188 191 192 190 189 188 184 179 176 177 177 178 178 177 176 176 176 176 176 178 180 181 180 180 180 182 183 184 186 187 188 190 193 197 197 195 193 193 200 207 214 217 215 209 201 191 185 183 186 192 202
204 204 204 204 203 203 203 203 203 202 200 196 194 194 194 193 190 188 188 190 190 189 187 187 182 179 176 176 175 175 175 173 171 172 173 174 176 179 179 178 176 175 176 177 178 179 181 183 185 187 190 192 193 193 192 190 196 205 212 216 211 203 193 186 185 187 192 198 207
206 206 205 205 205 204 204 203 202 201 199 196 194 193 193 193 191 190 189 187 186 186 186 187 182 177 175 174 173 173 172 169 169 170 172 174 177 178 177 172 170 169 169 169 171 175 181 186 189 191 192 194 196 196 195 193 196 201 206 211 208 204 199 195 195 197 201 205 208
207 207 206 206 205 205 203 202 200 199 198 196 193 192 192 192 192 191 188 184 183 184 185 186 181 177 174 173 172 170 169 166 166 168 171 173 176 175 171 165 163 164 167 172 178 185 191 196 197 197 198 199 200 200 198 196 197 199 203 207 209 209 208 206 204 204 205 207 206
208 207 207 206 205 204 202 199 197 197 196 195 193 192 191 192 192 189 185 180 181 183 184 183 178 174 172 169 168 167 165 162 164 166 169 170 171 170 168 165 166 171 177 184 187 190 195 200 202 202 202 202 202 202 201 200 200 202 204 207 208 209 208 207 205 205 205 206 204
204 203 202 201 199 197 195 192 191 191 193 194 192 191 190 190 190 186 182 179 181 181 181 177 172 167 164 162 163 162 162 162 165 167 169 170 170 170 171 172 176 183 188 193 192 192 193 197 200 201 202 203 204 205 204 203 203 204 204 205 205 205 205 205 204 204 205 206 204
198 195 193 190 188 186 185 184 185 187 190 192 191 189 188 187 186 183 179 177 178 177 174 169 164 160 157 157 158 159 161 167 171 172 172 172 174 176 178 180 185 192 197 200 196 194 192 192 192 194 197 201 204 206 206 205 204 204 202 200 200 199 200 201 203 205 207 208 207
193 191 189 186 183 182 182 183 184 185 186 189 189 188 186 184 182 179 175 173 171 168 164 160 159 157 155 155 157 162 168 177 180 179 177 176 179 182 185 188 192 197 202 204 199 195 193 191 188 187 190 196 200 203 204 204 203 201 198 194 193 194 197 200 204 207 209 211 210
192 191 190 186 183 182 182 182 179 178 179 182 185 186 184 179 173 168 165 163 158 153 149 147 148 148 149 154 163 172 180 185 187 186 184 182 185 188 191 195 196 199 201 201 198 194 192 191 188 186 187 193 196 198 199 200 197 194 193 191 192 194 197 201 205 207 209 211 211
191 189 186 181 180 181 180 178 176 176 177 179 180 178 173 163 154 150 148 146 143 140 136 135 137 142 157 173 181 184 185 185 187 188 190 191 193 194 196 198 199 200 199 196 192 190 189 190 189 188 188 192 194 195 194 192 188 187 187 188 191 195 199 204 207 207 208 209 209
188 184 179 176 176 176 175 174 174 173 170 165 161 157 152 148 144 141 139 137 137 138 139 140 148 166 184 195 194 190 185 181 183 188 193 198 200 201 202 202 203 201 197 190 186 185 186 189 190 189 189 190 192 191 189 187 182 179 180 185 190 195 200 206 208 207 204 204 205
183 179 175 174 172 170 169 170 168 164 159 154 151 150 148 146 145 143 142 141 144 147 151 158 173 187 194 196 192 189 186 185 187 190 195 199 203 206 207 206 206 203 195 185 181 181 184 187 190 190 190 189 190 189 185 181 176 175 178 186 192 196 201 205 206 203 199 198 200
180 177 175 174 172 171 170 169 165 161 156 152 151 149 148 147 147 147 148 149 153 158 164 172 184 191 193 188 186 188 192 194 194 196 198 201 204 207 209 209 211 207 196 180 178 179 182 187 189 189 189 188 191 191 187 180 178 180 184 191 194 196 197 198 198 196 195 194 195
179 177 176 174 174 172 171 168 164 161 158 155 153 151 150 150 151 152 155 158 162 167 172 179 183 184 183 182 185 190 195 199 200 201 203 204 207 210 212 213 216 213 199 178 177 179 182 185 186 186 186 186 193 199 198 188 185 185 190 195 193 190 188 187 188 189 190 191 192
178 177 175 174 172 171 168 166 164 162 160 158 156 154 153 154 156 158 162 166 169 172 175 177 176 176 178 181 186 191 196 199 201 203 205 207 211 213 215 218 220 215 197 177 178 179 180 181 180 180 180 183 194 205 208 198 189 183 181 181 174 172 172 176 178 183 187 188 189
177 176 174 172 169 167 166 165 164 163 162 161 158 156 155 157 161 163 165 166 169 171 173 172 173 176 180 184 187 190 193 195 197 199 202 206 210 214 217 221 221 210 178 171 175 176 175 174 172 171 174 179 194 208 213 204 187 169 156 143 137 143 155 166 173 179 183 184 183
176 174 172 170 168 166 165 166 165 164 163 163 161 159 159 161 164 163 160 156 159 163 168 171 174 178 183 188 189 190 191 192 194 196 199 202 207 212 215 218 216 177 144 159 164 167 167 167 167 167 169 175 192 208 211 197 171 147 132 121 118 124 135 146 156 165 170 171 165
174 173 171 169 167 167 167 167 166 165 164 164 162 161 161 163 161 155 147 142 149 157 164 169 174 180 186 190 191 191 191 191 192 194 197 201 206 209 209 202 160 103 121 153 159 164 166 168 167 166 166 170 185 196 194 176 146 126 116 107 104 103 105 107 110 120 132 142 142
173 171 170 169 168 168 168 168 166 165 164 163 161 160 159 157 149 142 138 139 147 155 162 168 174 181 186 190 191 191 190 190 191 192 194 196 200 197 189 157 119 97 120 159 164 168 171 171 168 164 162 164 172 173 164 145 126 114 107 101 96 92 89 86 85 88 94 103 112
173 171 170 169 168 168 168 168 166 165 163 162 159 155 151 145 140 139 140 142 148 155 162 169 175 180 184 186 185 182 178 177 180 180 179 176 176 170 158 134 122 113 132 170 173 174 173 171 165 160 157 157 158 154 145 132 124 117 110 104 96 89 83 77 74 73 75 80 88
172 171 170 169 168 167 166 166 165 163 160 158 153 148 142 138 141 144 146 146 150 155 161 167 172 173 171 168 159 144 126 113 126 137 140 137 136 135 132 126 120 113 126 164 172 172 170 165 160 156 153 151 151 147 140 132 127 122 117 110 101 91 82 77 74 73 74 75 81
171 170 168 167 166 165 165 164 162 159 155 151 147 142 138 137 140 143 143 141 144 147 152 157 156 149 136 122 114 100 86 74 75 83 92 99 100 103 108 115 113 108 111 137 156 161 161 159 156 153 151 149 149 144 138 134 130 126 122 116 109 99 91 83 81 79 79 79 80
166 165 164 163 162 162 162 160 157 152 148 144 140 136 134 133 135 134 133 128 129 130 131 130 124 115 105 97 95 90 84 75 70 71 75 81 83 85 91 102 103 102 101 108 129 141 148 151 152 152 151 148 146 142 137 134 131 129 126 121 114 108 102 95 88 85 84 84 84